www.pogodaiklimat.ru

Погода и климат >> Архив погоды >> Россия >> Чувашия >> Канаш


ПОГОДА в Канаше

  • Прогноз погоды в Канаше
  • Монитор погоды в Канаше

АРХИВ ПОГОДЫ в Канаше

Время (UTC), дата Ветер
(напр.,м/с)
 
Видим.   Явления Облачность Т
(С)
Тd
(С)
f
(%)
Тe
(С)
Тes
(С)
Комфортность P
(гПа)
Po
(гПа)
Тmin
(С)
Tmax
(С)
R
(мм)
R24
(мм)
S
(см)
18 16.07 В 2-3
{3}
20 км 9/3 600 м
[Sc Ci fib]
+20.0 +9.0 49 +22 +22 комфорт 1013.2 991.8
21 16.07 В 3-4
{4}
10 км 9/0
[Ci fib]
+18.1 +8.4 53 +18 +18 1013.3 991.9
00 17.07 ЮВ 3-4
{5}
20 км 9/0
[Ci fib]
+17.4 +9.2 59 +17 +17 1013.3 991.9
03 17.07 В 3-5
{5}
20 км 9/3 600 м
[Sc Ci fib]
+17.5 +9.5 59 +18 +19 1013.0 991.6 +16.4
06 17.07 В 2-5
{5}
20 км 9/8 600 м
[Cb calv Ci fib]
+19.8 +12.7 64 +22 +24 комфорт 1012.3 991.1
09 17.07 ЮВ 2-3
{6}
20 км слаб. ливневой дождь 10/10 600 м
[Cb calv]
+17.5 +14.4 82 +18 +18 1012.6 991.2
12 17.07 В 2-3
{5}
20 км в посл. час ливневой дождь 10/10 600 м
[Cb calv]
+19.4 +15.1 76 +22 +22 комфорт 1011.6 990.3
15 17.07 В 3-6
{6}
20 км {ливн. осадки} 10/10 300 м
[Cb calv]
+19.0 +16.2 84 +21 +21 комфорт 1010.3 989.0 +19.7 3
18 17.07 ЮВ 3-5
{7}
20 км {ливн. осадки} 9/9 600 м
[Sc]
+17.3 +14.9 86 +17 +17 1010.1 988.6
21 17.07 В 3-5
{7}
10 км 10/10 600 м
[Cb calv]
+16.6 +14.7 89 +16 +16 1009.2 987.7
00 18.07 В 4-7
{8}
20 км 10/10 300 м
[Cb calv]
+16.8 +14.4 86 +16 +16 1008.1 986.7
03 18.07 В 3-8
{8}
10 км слаб. ливневой дождь 10/10 300 м
[Cb calv]
+16.2 +15.1 93 +16 +16 1007.5 986.1 +16.1 3
06 18.07 В 3-5
{8}
20 км {гроза, ливн. осадки} 9/5 600 м
[Cb calv Ac trans Ci fib]
+18.4 +16.0 86 +19 +22 1006.5 985.2
09 18.07 ЮВ 2-5
{8}
20 км 9/9 600 м
[Cb calv]
+23.6 +15.9 62 +27 +28 жарко 1005.6 984.8
12 18.07 ЮЗ 3-5
{6}
20 км 9/9 600 м
[Cb calv]
+23.5 +15.8 62 +27 +27 душно 1005.9 985.1
15 18.07 З 3-4
{5}
20 км 4/3
[Cb calv Ci fib]
+23.5 +16.3 64 +27 +28 душно 1006.2 985.4 +24.9 0.6
18 18.07 З 1-1
{5}
20 км 4/3 600 м
[Cb calv Ci fib]
+19.6 +16.3 81 +23 +23 комфорт 1006.9 985.8
21 18.07 З 2-4
{4}
10 км ясно +17.8 +15.2 85 +18 +18 1007.6 986.3
00 19.07 ЮЗ 1-2
{4}
20 км 3/0
[Ci fib]
+16.6 +14.7 89 +17 +17 1008.0 986.6
03 19.07 З 1-2
{3}
20 км 8/0
[Ac trans Ci fib]
+17.2 +14.6 85 +18 +20 1008.3 986.9 +16.4
06 19.07 ЮЗ 1-2
{4}
20 км 9/0
[Ci fib]
+16.6 +14.7 89 +17 +29 опасность
простуды
1008.0 986.6
09 19.07 ЮЗ 5-9
{9}
20 км 9/8 600 м
[Cu hum Ci fib]
+25.8 +12.3 43 +27 +29 жарко 1008.4 987.5
12 19.07 ЮЗ 4-7
{9}
20 км 9/6 600 м
[Cu hum Ci fib]
+26.4 +10.4 37 +27 +29 жарко 1008.4 987.6
15 19.07 ЮЗ 4-6
{8}
20 км 3/3 600 м
[Cu hum]
+25.6 +9.4 36 +26 +27 жарко 1008.4 987.5 +27.2
18 19.07 ЮЗ 3-4
{7}
20 км ясно +20.3 +10.7 54 +22 +22 комфорт 1009.9 988.7
21 19.07 Ю 3-4
{5}
10 км ясно +18.1 +8.9 55 +18 +18 1010.2 988.8
00 20.07 ЮВ 2-3
{5}
20 км 9/0
[Ci fib]
+16.2 +9.9 66 +16 +16 1010.8 989.3
03 20.07 Ю 4-6
{7}
20 км 9/0
[Ac trans Ci fib]
+17.1 +11.0 67 +17 +18 1011.0 989.6 +15.4
06 20.07 ЮЗ 5-7
{9}
20 км 3/0
[Ci fib]
+20.4 +12.8 62 +22 +28 комфорт 1010.7 989.5
09 20.07 ЮЗ 6-9
{10}
20 км 9/9 600 м
[Cb calv]
+21.6 +11.5 53 +24 +24 комфорт 1011.3 990.2
12 20.07 ЮЗ 6-11
{12}
20 км 9/9 600 м
[Cb calv]
+22.5 +11.7 50 +25 +25 комфорт 1012.0 990.9
15 20.07 ЮЗ 6-9
{10}
20 км 8/8 600 м
[Cu hum]
+21.9 +13.0 57 +25 +25 комфорт 1011.6 990.5 +24.0
18 20.07 ЮЗ 1-3
{9}
20 км 9/8 600 м
[Cb calv Ci fib]
+18.1 +13.3 74 +19 +19 1011.9 990.5
21 20.07 ЮЗ 4-5
{6}
10 км 3/0
[Ci fib]
+16.0 +12.4 79 +15 +15 1012.0 990.5
00 21.07 ЮЗ 2-3
{5}
20 км ясно +14.4 +12.6 89 +14 +14 1012.4 990.7
03 21.07 ЮЗ 3-5
{5}
20 км 9/8 600 м
[Sc Ci fib]
+15.5 +13.5 88 +15 +15 1012.3 990.7 +14.1
06 21.07 ЮЗ 3-5
{6}
20 км 9/9 600 м
[Cb calv]
+18.4 +15.0 81 +19 +20 1012.5 991.1
09 21.07 ЮЗ 5-7
{8}
20 км 9/9 600 м
[Cb calv]
+21.4 +13.4 60 +24 +25 комфорт 1012.0 990.9
12 21.07 СЗ 2-4
{10}
20 км гроза без осадков {ливн. осадки} 10/10 600 м
[Cb calv]
+18.3 +14.5 79 +19 +19 1012.8 991.4
15 21.07 З 2-3
{10}
20 км в посл. час ливневой дождь {гроза} 9/9 600 м
[Cb calv]
+17.2 +15.0 87 +18 +18 1012.9 991.5 +23.3 6
18 21.07 ЮЗ 4-5
{5}
20 км {гроза, ливн. осадки} 3/3 600 м
[Sc]
+16.1 +14.2 88 +15 +15 1012.7 991.2
21 21.07 ЮЗ 3-4
{5}
10 км ясно +14.8 +13.0 89 +14 +14 1012.7 991.0
00 22.07 ЮЗ 3-4
{5}
20 км 3/0
[Ci fib]
+13.0 +11.3 89 +12 +12 1013.3 991.5
03 22.07 З 5-6
{7}
2000 м дымка 10/10 300 м
[St]
+13.1 +11.8 92 +11 +11 1012.8 991.1 +12.9 0.0
06 22.07 З 5-6
{7}
20 км {морось} 10/10 600 м
[Cb calv]
+16.1 +14.0 87 +15 +15 1012.6 991.1
09 22.07 З 6-8
{9}
20 км {ливн. осадки} 10/10 600 м
[Cb calv]
+17.6 +13.3 76 +17 +17 1012.3 990.9
12 22.07 З 6-9
{10}
20 км {ливн. осадки} 9/9 600 м
[Cb calv]
+19.5 +12.4 64 +21 +21 комфорт 1012.0 990.7
15 22.07 СЗ 5-7
{9}
20 км {ливн. осадки} 8/8 600 м
[Cb calv]
+18.4 +12.3 68 +18 +19 1012.3 990.9 +20.5 0.0
18 22.07 З 3-4
{8}
20 км {ливн. осадки} 6/3 600 м
[Sc Ac trans]
+15.4 +13.6 89 +15 +15 1012.6 991.0
21 22.07 З 2-2
{3}
20 км ясно +13.4 +11.9 91 +13 +13 1012.8 991.1
00 23.07 З 1-2
{3}
20 км 4/3 600 м
[Sc Ci fib]
+12.2 +10.6 90 +12 +12 1012.9 991.1
03 23.07 З 2-3
{3}
20 км {ливн. осадки} 9/9 600 м
[Sc]
+12.2 +10.9 92 +11 +11 1013.6 991.8 +11.8 0.3
06 23.07 З 4-5
{6}
20 км {ливн. осадки} 9/9 600 м
[Cb calv]
+16.6 +11.9 74 +16 +17 1013.5 992.0
09 23.07 СЗ 4-7
{7}
20 км 9/9 600 м
[Cu Sc]
+18.9 +11.4 62 +20 +21 1013.9 992.5
12 23.07 З 4-7
{8}
20 км 8/8 600 м
[Cu hum]
+21.7 +10.6 49 +23 +25 комфорт 1014.0 992.8
15 23.07 С 2-3
{9}
20 км 9/0
[Ac trans Ci fib]
+20.5 +12.1 59 +23 +24 комфорт 1013.9 992.6 +22.4

 

Местоположение метеостанции Канаш (Чувашия, Россия): широта 55.52 долгота 47.47 высота над уровнем моря 183 м.

В архиве по умолчанию представлена погода в Канаше за последнюю неделю. Архивные данные за месяц целиком и за предыдущие месяцы, начиная с января 2011 года, Вы можете получить, выбрав интересующий диапазон дат из раскрывающегося списка и нажав кнопку "Ввод!".


*Определитесь, кто Вы:
робот инопланетянин человек

Внимание! Время в таблицах - всемирное. Для получения местного времени необходимо прибавить поправку, которая равна 3 ч.

Смотрите также архив погоды в соседних городах и на ближайших метеорологических станциях:

Погода в Больших Кайбицах (Татарстан, Россия) (47 км)
Погода в Батырево (Чувашия, Россия) (51 км)
Погода в Чебоксарах (Чувашия, Россия) (63 км)
Погода в Вязовых (Татарстан, Россия) (74 км)
Погода в Порецком (Чувашия, Россия) (81 км)
Погода в Дрожжаном (Татарстан, Россия) (89 км)
Погода в Алатыре (Чувашия, Россия) (96 км)
Погода в Тетюшах (Татарстан, Россия) (105 км)
Погода в Козьмодемьянске (Марий-Эл, Россия) (106 км)
Погода в Казани (Татарстан, Россия) (111 км)

Пояснения к столбцам:

Ветер - указаны скорость ветра в м/с - средняя за 10 мин, порывы в срок и между сроками (в фигурных скобках) и направление, откуда дует ветер: С - северный, СВ - северо-восточный, В - восточный, ЮВ - юго-восточный, Ю - южный, ЮЗ - юго-западный, З - западный, СЗ - северо-западный.
Видимость - горизонтальная дальность видимости в метрах или километрах. При видимости от 1 до 10 км при отсутствии осадков обычно наблюдается дымка, при ухудшении видимости до 1 км и менее - туман. В сухую погоду видимость может ухудшаться дымом, пылью или мглою.
Явления - указаны атмосферные явления, наблюдавшиеся в срок или в последний час перед сроком; фигурными скобками обозначены явления, наблюдавшиеся между сроками (за 1-3 часа до срока); квадратными скобками обозначены град или гололедные отложения с указанием их диаметра в мм.
Облачность - указаны через наклонную черту общая и нижняя облачность в баллах и высота нижней границы облаков в метрах; квадратными скобками обозначены формы облаков: Ci - перистые, Cs - перисто-слоистые, Cc - перисто-кучевые, Ac - высококучевые, As - высокослоистые, Sc - слоисто-кучевые, Ns - слоисто-дождевые, Cu - кучевые, Cb - кучево-дождевые. Подробнее классификацию облаков см. в Атласе облаков (PDF).
T - Температура воздуха - температура, измеренная на высоте 2 м над землей.
Td - Температура точки росы - температура, при понижении до которой содержащийся в воздухе водяной пар достигнет насыщения.
f - Относительная влажность воздуха - влажноcть воздуха, измеренная на высоте 2 м над землей.
Te - Эффективная температура - температура, которую ощущает одетый по сезону человек в тени. Характеристика душности погоды. При расчете учитывается влияние влажности воздуха и скорости ветра на теплоощущения человека.
Tes - Эффективная температура на солнце - температура, которую ощущает человек, с поправкой на солнечный нагрев. Характеристика знойности погоды. Зависит от высоты солнца над горизонтом, облачности и скорости ветра. Ночью, в пасмурную погоду, а также при ветре 12 м/с и более поправка равна нулю.
P - Атмосферное давление - приведенное к уровню моря атмосферное давление.
Po - Атмосферное давление - измеренное на уровне метеостанции атмосферное давление.
Tmin - Минимальная температура - минимум температуры воздуха на высоте 2 м над землей.
Tmax - Максимальная температура - максимум температуры воздуха на высоте 2 м над землей.
R - Количество осадков - Количество выпавших осадков за период времени, мм. При наведении курсора мыши на число - период времени, за который выпало указанное количество осадков.
R24 - Количество осадков - Количество выпавших осадков за 24 часа, мм.
S - Снежный покров - Высота снежного покрова, см. При наведении курсора мыши на число - состояние снежного покрова и степень покрытия местности в баллах.